Edenton, NC

4:43 AM EDT on April 25, 2017 (GMT -0400)
Northeastern Regional

Weather History for KEDE - December, 2013

Change the Weather History Date:

Tuesday, December 3, 2013

  Actual Average Record
Temperature  
Mean Temperature 46 °F -  
Max Temperature 60 °F 58 °F 78 °F (1991)
Min Temperature 32 °F 39 °F 20 °F (1953)
Degree Days  
Heating Degree Days 19    
Moisture  
Dew Point 39 °F    
Average Humidity 78    
Maximum Humidity 100    
Minimum Humidity 40    
Precipitation  
Precipitation 0.00 in - - ()
Sea Level Pressure  
Sea Level Pressure 29.96 in    
Wind  
Wind Speed 1 mph (South)    
Max Wind Speed 8 mph    
Max Gust Speed -    
Visibility 7 miles    
Events Fog    
Averages and records for this station are not official NWS values.
T = Trace of Precipitation, MM = Missing Value Source: NWS Daily Summary

Daily Weather History Graph

Daily Weather History Graph

Search for Another Location

Airport or City:

Trip Planner

Search our weather history database for the weather conditions in past years. The results will help you decide how hot, cold, wet, or windy it might be!

Date:

Astronomy

Dec. 03, 2013 Rise Set
Actual Time 7:00 AM EST 4:51 PM EST
Civil Twilight 6:32 AM EST 5:20 PM EST
Nautical Twilight 6:00 AM EST 5:51 PM EST
Astronomical Twilight 5:29 AM EST 6:22 PM EST
Moon 7:28 AM EST (12/3) 5:52 PM EST (12/3)
Length of Visible Light 10h 47m
Length of Day
9h 51m
New Moon, 1% of the Moon is Illuminated
Dec 3
New Moon
Dec 9
First Quarter
Dec 17
Full
Dec 25
Last Quarter
Jan 1
New

Hourly Weather History & Observations

Time (EST) Temp. Dew Point Humidity Pressure Visibility Wind Dir Wind Speed Gust Speed Precip Events Conditions
12:15 AM 36.5 °F 35.6 °F 97% 29.87 in 10.0 mi Calm Calm - N/A   Unknown
12:35 AM 36.0 °F 35.1 °F 97% 29.87 in 7.0 mi Calm Calm - N/A   Unknown
12:55 AM 36.0 °F 35.1 °F 97% 29.88 in 10.0 mi Calm Calm - N/A   Unknown
1:15 AM 36.7 °F 35.8 °F 97% 29.87 in 5.0 mi Calm Calm - N/A   Mist
1:35 AM 36.0 °F 35.1 °F 97% 29.87 in 3.0 mi Calm Calm - N/A   Mist
1:55 AM 34.7 °F 33.8 °F 97% 29.88 in 7.0 mi Calm Calm - N/A   Unknown
2:15 AM 34.9 °F 34.2 °F 97% 29.88 in 10.0 mi Calm Calm - N/A   Unknown
2:35 AM 34.2 °F 33.3 °F 97% 29.88 in 4.0 mi Calm Calm - N/A   Mist
2:55 AM 35.4 °F 34.7 °F 97% 29.89 in 2.0 mi Calm Calm - N/A   Mist
3:15 AM 35.8 °F 35.1 °F 97% 29.89 in 5.0 mi Calm Calm - N/A   Mist
3:35 AM 33.1 °F 32.2 °F 96% 29.89 in 2.5 mi Calm Calm - N/A   Mist
3:55 AM 34.7 °F 33.8 °F 97% 29.89 in 3.0 mi Calm Calm - N/A   Mist
4:15 AM 34.3 °F 33.8 °F 98% 29.90 in 3.0 mi Calm Calm - N/A   Mist
4:35 AM 35.6 °F 35.1 °F 98% 29.90 in 4.0 mi Calm Calm - N/A   Mist
4:55 AM 33.3 °F 32.7 °F 98% 29.90 in 7.0 mi Calm Calm - N/A   Unknown
5:15 AM 33.6 °F 32.9 °F 97% 29.91 in 3.0 mi Calm Calm - N/A   Mist
5:35 AM 33.8 °F 32.9 °F 96% 29.92 in 2.0 mi Calm Calm - N/A   Mist
5:55 AM 33.4 °F 32.7 °F 97% 29.92 in 3.0 mi Calm Calm - N/A   Mist
6:15 AM 32.0 °F 31.8 °F 99% 29.93 in 0.8 mi Calm Calm - N/A   Mist
6:35 AM 33.3 °F 32.7 °F 98% 29.94 in 0.8 mi Calm Calm - N/A   Mist
6:55 AM 32.5 °F 32.2 °F 99% 29.95 in 2.0 mi Calm Calm - N/A   Mist
7:15 AM 32.9 °F 32.4 °F 98% 29.95 in 0.2 mi Calm Calm - N/A Fog Fog
7:35 AM 32.5 °F 32.2 °F 99% 29.95 in 1.8 mi Calm Calm - N/A   Mist
7:55 AM 33.8 °F 33.4 °F 99% 29.96 in 1.5 mi Calm Calm - N/A   Mist
8:15 AM 34.7 °F 34.5 °F 99% 29.96 in 3.0 mi Calm Calm - N/A   Mist
8:35 AM 39.7 °F 39.7 °F 100% 29.97 in 3.0 mi Calm Calm - N/A   Mist
8:55 AM 42.6 °F 42.4 °F 99% 29.98 in 5.0 mi Calm Calm - N/A   Mist
9:15 AM 45.5 °F 44.6 °F 97% 29.98 in 7.0 mi Calm Calm - N/A   Unknown
9:35 AM 47.3 °F 44.2 °F 89% 29.99 in 7.0 mi Calm Calm - N/A   Unknown
9:55 AM 49.5 °F 44.8 °F 84% 29.99 in 10.0 mi Calm Calm - N/A   Unknown
10:15 AM 51.1 °F 43.2 °F 74% 29.99 in 10.0 mi Calm Calm - N/A   Unknown
10:35 AM 52.9 °F 42.3 °F 67% 29.99 in 10.0 mi Calm Calm - N/A   Unknown
10:55 AM 54.1 °F 40.1 °F 59% 29.99 in 10.0 mi SSW 3.5 mph - N/A   Unknown
11:15 AM 51.8 °F 43.0 °F 72% 29.99 in 10.0 mi SSW 4.6 mph - N/A   Unknown
11:35 AM 51.3 °F 43.7 °F 75% 29.98 in 10.0 mi SSW 3.5 mph - N/A   Unknown
11:55 AM 51.3 °F 42.1 °F 71% 29.98 in 5.0 mi South 3.5 mph - N/A   Haze
12:15 PM 54.3 °F 37.0 °F 52% 29.97 in 5.0 mi South 3.5 mph - N/A   Haze
12:35 PM 56.1 °F 33.1 °F 42% 29.96 in 10.0 mi WSW 3.5 mph - N/A   Unknown
12:55 PM 57.0 °F 32.7 °F 40% 29.96 in 10.0 mi SSW 3.5 mph - N/A   Unknown
1:15 PM 58.1 °F 36.5 °F 44% 29.95 in 10.0 mi SSW 3.5 mph - N/A   Unknown
1:35 PM 59.2 °F 38.8 °F 47% 29.96 in 10.0 mi SW 4.6 mph - N/A   Unknown
1:55 PM 59.4 °F 38.3 °F 46% 29.96 in 10.0 mi WSW 4.6 mph - N/A   Unknown
2:15 PM 59.9 °F 39.7 °F 47% 29.95 in 10.0 mi South 3.5 mph - N/A   Unknown
2:35 PM 60.3 °F 40.1 °F 47% 29.96 in 10.0 mi South 3.5 mph - N/A   Unknown
2:55 PM 60.1 °F 39.9 °F 47% 29.95 in 3.0 mi South 3.5 mph - N/A   Haze
3:15 PM 59.0 °F 40.5 °F 50% 29.95 in 10.0 mi Calm Calm - N/A   Unknown
3:35 PM 58.8 °F 40.3 °F 50% 29.96 in 10.0 mi South 3.5 mph - N/A   Unknown
3:55 PM 57.0 °F 41.2 °F 55% 29.97 in 10.0 mi Calm Calm - N/A   Unknown
4:15 PM 55.8 °F 43.2 °F 63% 29.98 in 10.0 mi Calm Calm - N/A   Unknown
4:35 PM 54.1 °F 43.2 °F 66% 29.98 in 10.0 mi Calm Calm - N/A   Unknown
4:55 PM 52.2 °F 44.6 °F 75% 29.99 in 10.0 mi Calm Calm - N/A   Unknown
5:15 PM 50.2 °F 44.6 °F 81% 30.00 in 10.0 mi Calm Calm - N/A   Unknown
5:35 PM 49.1 °F 43.7 °F 82% 30.01 in 10.0 mi Calm Calm - N/A   Unknown
5:55 PM 48.2 °F 43.0 °F 82% 30.01 in 10.0 mi Calm Calm - N/A   Unknown
6:15 PM 47.3 °F 42.4 °F 83% 30.01 in 10.0 mi Calm Calm - N/A   Unknown
6:35 PM 48.4 °F 42.8 °F 81% 30.01 in 10.0 mi Calm Calm - N/A   Unknown
6:55 PM 49.1 °F 43.2 °F 80% 30.01 in 10.0 mi Calm Calm - N/A   Unknown
7:15 PM 50.2 °F 43.5 °F 78% 30.02 in 10.0 mi South 4.6 mph - N/A   Unknown
7:35 PM 52.2 °F 43.0 °F 71% 30.02 in 10.0 mi South 3.5 mph - N/A   Unknown
7:55 PM 52.2 °F 43.2 °F 71% 30.02 in 10.0 mi South 3.5 mph - N/A   Unknown
8:15 PM 52.9 °F 41.5 °F 65% 30.02 in 10.0 mi South 4.6 mph - N/A   Unknown
8:35 PM 52.5 °F 41.9 °F 67% 30.02 in 10.0 mi South 5.8 mph - N/A   Unknown
8:55 PM 52.2 °F 40.6 °F 65% 30.02 in 10.0 mi South 6.9 mph - N/A   Unknown
9:15 PM 51.8 °F 39.4 °F 63% 30.02 in 10.0 mi SSE 5.8 mph - N/A   Unknown
9:35 PM 51.8 °F 38.3 °F 60% 30.02 in 10.0 mi South 8.1 mph - N/A   Unknown
9:55 PM 50.9 °F 39.4 °F 65% 30.03 in 10.0 mi South 6.9 mph - N/A   Unknown
10:15 PM 49.3 °F 39.6 °F 69% 30.03 in 10.0 mi South 4.6 mph - N/A   Unknown
10:35 PM 49.1 °F 40.6 °F 73% 30.02 in 10.0 mi South 4.6 mph - N/A   Unknown
10:55 PM 49.6 °F 40.3 °F 70% 30.03 in 10.0 mi South 5.8 mph - N/A   Unknown
11:15 PM 50.2 °F 40.5 °F 69% 30.04 in 10.0 mi South 4.6 mph - N/A   Unknown
11:35 PM 50.0 °F 40.1 °F 69% 30.04 in 10.0 mi South 4.6 mph - N/A   Unknown
11:55 PM 49.8 °F 41.0 °F 72% 30.04 in 10.0 mi SSW 3.5 mph - N/A   Unknown